www.pogodaiklimat.ru

Погода и климат >> Архив погоды >> Мьянма >> Мандалай


ПОГОДА в Мандалае

  • Прогноз погоды в Мандалае
  • Монитор погоды в Мандалае

АРХИВ ПОГОДЫ в Мандалае

Время (UTC), дата Ветер
(напр.,м/с)
 
Видим.   Явления Облачность Т
(С)
Тd
(С)
f
(%)
Тe
(С)
Тes
(С)
Комфортность P
(гПа)
Po
(гПа)
Тmin
(С)
Tmax
(С)
R
(мм)
R24
(мм)
S
(см)
06 15.09 ЮЗ 1 8000 м 4/4 600 м
[Cb cap]
+35.2 +26.6 61 +52 +66 опасность
перегрева
1006.7 998.3
09 15.09 штиль 0 7000 м 8/6 600 м
[Cb cap Ac und]
+36.2 +27.8 62 +56 +59 опасность
перегрева
1003.5 995.1
12 15.09 штиль 0 7000 м 6/4 600 м
[Cb cap Ac und Ci sp]
+33.4 +27.5 71 +53 +53 опасность
перегрева
1003.6 995.1 +36.5
03 16.09 ЮВ 1 7000 м 3/3 600 м
[Cu Sc]
+32.0 +24.8 66 +45 +55 опасность
перегрева
1008.3 999.8
06 16.09 ЮЗ 1 8000 м 4/4 600 м
[Cb cap]
+34.8 +24.0 54 +47 +60 опасность
перегрева
1006.6 998.1
09 16.09 В 1 8000 м 3/3 600 м
[Cu Sc]
+37.0 +25.8 53 +52 +58 опасность
перегрева
1003.0 994.6
12 16.09 штиль 0 7000 м 3/3 600 м
[Cu Sc]
+34.3 +25.7 61 +49 +49 опасность
перегрева
1002.1 993.7 +37.8
00 17.09 штиль 0 6000 м 9/5 600 м
[Cb cap Ac As]
+26.7 +24.0 85 +37 +37 очень
душно
1007.6 998.9 +26.0 0.0
03 17.09 ЮВ 1 7000 м 4/3 600 м
[Cu Sc Ci sp]
+30.7 +25.4 73 +45 +54 опасность
перегрева
1009.7 1001.1
06 17.09 ЮЗ 1 8000 м 5/5 600 м
[Cb cap]
+35.0 +24.0 53 +47 +58 опасность
перегрева
1008.0 999.5
09 17.09 ЮЗ 1 8000 м 4/4 600 м
[Cu Sc]
+36.0 +26.4 58 +53 +58 опасность
перегрева
1005.7 997.3
12 17.09 штиль 0 7000 м 4/3 600 м
[Cu Sc Ci sp]
+33.7 +25.7 63 +49 +49 опасность
перегрева
1005.6 997.1 +36.2
00 18.09 штиль 0 6000 м 3/3 600 м
[Cu Sc]
+28.0 +25.0 84 +40 +41 очень
душно
1009.0 1000.3 +27.5
03 18.09 ЮВ 1 7000 м 3/3 600 м
[Cu Sc]
+32.3 +24.8 65 +46 +55 опасность
перегрева
1010.9 1002.3
06 18.09 ЮЗ 1 8000 м 4/4 600 м
[Cb cap]
+36.4 +36.4 100 +96 +109 опасность
перегрева
1009.3 1000.9
09 18.09 Ю 1 8000 м 5/5 600 м
[Cb cap]
+37.6 +29.1 62 +61 +65 опасность
перегрева
1006.3 997.9
12 18.09 Ю 2 6000 м гроза без осадков 9/6 600 м
[Cb cap Ac und]
+34.4 +25.7 61 +50 +50 опасность
перегрева
1007.2 998.7 +38.0
00 19.09 штиль 0 6000 м 6/4 600 м
[Cu Sc Ac und Ci sp]
+27.4 +25.6 90 +40 +41 очень
душно
1009.6 1000.9 +26.8 0.0
03 19.09 СЗ 1 7000 м 1/1 600 м
[Cu hum]
+31.2 +25.4 71 +45 +57 опасность
перегрева
1010.6 1002.0
06 19.09 СЗ 1 8000 м 4/3 600 м
[Cu Sc Ci sp]
+35.7 +24.9 54 +49 +64 опасность
перегрева
1009.0 1000.6
09 19.09 ЮВ 6 7000 м гроза без осадков 9/5 600 м
[Cb cap Ac und]
+31.5 +24.2 65 +43 +44 опасность
перегрева
1007.3 998.7
12 19.09 штиль 0 7000 м {гроза, морось} 6/4 600 м
[Cb cap Ci sp]
+29.7 +24.6 74 +42 +42 опасность
перегрева
1007.7 999.1 +37.0 0.0
00 20.09 штиль 0 6000 м 6/4 600 м
[Cu Sc Ac lent]
+26.0 +24.6 92 +37 +37 очень
душно
1008.4 999.7 +25.5
03 20.09 СЗ 1 7000 м 6/3 600 м
[Cu Sc Ac und]
+30.2 +25.3 75 +44 +51 опасность
перегрева
1010.1 1001.5
06 20.09 ЮЗ 1 8000 м 4/4 600 м
[Cu Sc]
+35.0 +26.6 62 +52 +65 опасность
перегрева
1009.0 1000.5
09 20.09 ЮЗ 1 8000 м 5/4 600 м
[Cb cap Ac und]
+36.4 +26.4 57 +53 +58 опасность
перегрева
1004.9 996.5
12 20.09 штиль 0 7000 м гроза без осадков 4/4 600 м
[Cb cap]
+33.0 +25.8 66 +48 +48 опасность
перегрева
1005.7 997.2 +36.8
00 21.09 ЮВ 1 6000 м 4/1 600 м
[Sc diur, vesp Ci sp]
+27.0 +24.0 84 +37 +38 очень
душно
1008.1 999.4 +26.5
03 21.09 штиль 0 7000 м 6/4 600 м
[Cu Sc Ac und Ci sp]
+31.6 +24.8 67 +45 +52 опасность
перегрева
1009.4 1000.8
06 21.09 Ю 1 8000 м 6/4 600 м
[Cb cap Ac und]
+35.1 +28.0 67 +56 +66 опасность
перегрева
1007.9 999.4
09 21.09 ЮЗ 2 7000 м 8/6 600 м
[Cb cap Ac und]
+34.6 +29.7 76 +61 +63 опасность
перегрева
1005.0 996.6
12 21.09 СЗ 2 6000 м 9/6 600 м
[Cb cap Ac und]
+30.0 +26.6 82 +46 +46 опасность
перегрева
1006.7 998.1 +36.0
00 22.09 штиль 0 6000 м 9/5 600 м
[Cb cap Ac As]
+27.0 +24.0 84 +37 +38 очень
душно
1011.4 1002.7 +26.4
03 22.09 ЮВ 1 7000 м 9/5 600 м
[Cb cap Ac und]
+27.8 +25.0 85 +40 +43 очень
душно
1013.3 1004.6

 

Местоположение метеостанции Мандалай (Мьянма): широта 21.98 долгота 96.10 высота над уровнем моря 76 м.

В архиве по умолчанию представлена погода в Мандалае за последнюю неделю. Архивные данные за месяц целиком и за предыдущие месяцы, начиная с января 2011 года, Вы можете получить, выбрав интересующий диапазон дат из раскрывающегося списка и нажав кнопку "Ввод!".


*Определитесь, кто Вы:
робот инопланетянин человек

Внимание! Время в таблицах - всемирное. Для получения местного времени необходимо прибавить поправку, которая равна 6.5 ч.

Смотрите также архив погоды в соседних городах и на ближайших метеорологических станциях:

Погода в Сикайне (Мьянма) (18 км)
Погода в Мемьо (Мьянма) (38 км)
Погода в Шуэбо (Мьянма) (77 км)
Погода в Моунъюа (Мьянма) (101 км)
Погода в Могоу (Мьянма) (112 км)
Погода в Мейтхиле (Мьянма) (131 км)
Погода в Ньянг-У (Мьянма) (150 км)
Погода в Таунджи (Мьянма) (166 км)
Погода в Чау (Мьянма) (180 км)
Погода в Лашо (Мьянма) (200 км)

Пояснения к столбцам:

Ветер - указаны скорость ветра в м/с - средняя за 10 мин, порывы в срок и между сроками (в фигурных скобках) и направление, откуда дует ветер: С - северный, СВ - северо-восточный, В - восточный, ЮВ - юго-восточный, Ю - южный, ЮЗ - юго-западный, З - западный, СЗ - северо-западный.
Видимость - горизонтальная дальность видимости в метрах или километрах. При видимости от 1 до 10 км при отсутствии осадков обычно наблюдается дымка, при ухудшении видимости до 1 км и менее - туман. В сухую погоду видимость может ухудшаться дымом, пылью или мглою.
Явления - указаны атмосферные явления, наблюдавшиеся в срок или в последний час перед сроком; фигурными скобками обозначены явления, наблюдавшиеся между сроками (за 1-3 часа до срока); квадратными скобками обозначены град или гололедные отложения с указанием их диаметра в мм.
Облачность - указаны через наклонную черту общая и нижняя облачность в баллах и высота нижней границы облаков в метрах; квадратными скобками обозначены формы облаков: Ci - перистые, Cs - перисто-слоистые, Cc - перисто-кучевые, Ac - высококучевые, As - высокослоистые, Sc - слоисто-кучевые, Ns - слоисто-дождевые, Cu - кучевые, Cb - кучево-дождевые. Подробнее классификацию облаков см. в Атласе облаков (PDF).
T - Температура воздуха - температура, измеренная на высоте 2 м над землей.
Td - Температура точки росы - температура, при понижении до которой содержащийся в воздухе водяной пар достигнет насыщения.
f - Относительная влажность воздуха - влажноcть воздуха, измеренная на высоте 2 м над землей.
Te - Эффективная температура - температура, которую ощущает одетый по сезону человек в тени. Характеристика душности погоды. При расчете учитывается влияние влажности воздуха и скорости ветра на теплоощущения человека.
Tes - Эффективная температура на солнце - температура, которую ощущает человек, с поправкой на солнечный нагрев. Характеристика знойности погоды. Зависит от высоты солнца над горизонтом, облачности и скорости ветра. Ночью, в пасмурную погоду, а также при ветре 12 м/с и более поправка равна нулю.
P - Атмосферное давление - приведенное к уровню моря атмосферное давление.
Po - Атмосферное давление - измеренное на уровне метеостанции атмосферное давление.
Tmin - Минимальная температура - минимум температуры воздуха на высоте 2 м над землей.
Tmax - Максимальная температура - максимум температуры воздуха на высоте 2 м над землей.
R - Количество осадков - Количество выпавших осадков за период времени, мм. При наведении курсора мыши на число - период времени, за который выпало указанное количество осадков.
R24 - Количество осадков - Количество выпавших осадков за 24 часа, мм.
S - Снежный покров - Высота снежного покрова, см. При наведении курсора мыши на число - состояние снежного покрова и степень покрытия местности в баллах.